Regional Weather Roundup
Issued by NWS Newport/Morehead, NC

Current Version | Previous Version | Graphics & Text | Print | Product List | Glossary Off
Versions: 1 2 3 4 5 6 7 8 9 10 11 12 13 14 15 16 17 18 19 20 21 22 23 24 25 26 27 28 29 30 31 32 33 34 35 36 37 38 39 40 41 42 43 44 45 46 47 48 49 50
000 ASUS42 KMHX 230110 RWRMHX WEATHER ROUNDUP FOR EASTERN NORTH CAROLINA NATIONAL WEATHER SERVICE NEWPORT/MOREHEAD CITY NC 800 PM EST MON DEC 22 2014 NOTE: "FAIR" INDICATES FEW OR NO CLOUDS BELOW 12,000 FEET WITH NO SIGNIFICANT WEATHER AND/OR OBSTRUCTIONS TO VISIBILITY NCZ015>017-031-032-045>047-102-103-230200- NORTH COAST CITY SKY/WX TMP DP RH WIND PRES REMARKS EDENTON CLOUDY 47 47 99 N12 30.01S FOG ELIZABETH CITY CLOUDY 56 51 84 NW9 30.01R HAZE KITTY HAWK FOG 53 53 100 CALM 29.97R VSB 1/4 MANTEO FOG 51 51 100 NW6 29.98R VSB 1 $$ NCZ045>047-081-094-103-104-230200- CENTRAL COAST CITY SKY/WX TMP DP RH WIND PRES REMARKS FRISCO FOG 51 51 100 W5 29.97S VSB 1/2 SWANQUARTER N/A 50 N/A N/A NW7G13 29.94F $$ NCZ095-097-098-100-101-230200- SOUTHERN COAST CITY SKY/WX TMP DP RH WIND PRES REMARKS BEAUFORT CLOUDY 49 48 97 N7 30.00F CEDAR ISLAND N/A 50 N/A N/A W8G15 30.03S JACKSONVILLE CLOUDY 45 44 97 N10 30.02F FOG PINEY ISLAND FOG 51 48 89 NW8 30.00F VSB 1/2 WILMINGTON CLOUDY 45 44 97 N7 30.04R $$ NCZ011>013-027>030-043-044-078>080-089-090>093-098-230200- COASTAL PLAIN CITY SKY/WX TMP DP RH WIND PRES REMARKS AHOSKIE CLOUDY 40 39 96 N5 30.06S FOG CLINTON CLOUDY 41 41 100 NE7 30.05F FOG ELIZABETHTOWN CLOUDY 42 42 100 N3 30.04F FOG GOLDSBORO CLOUDY 42 41 99 VRB5 30.04R FOG GREENVILLE CLOUDY 43 43 100 N9 30.05F FOG HAVELOCK FOG 47 46 97 N7 30.02F VSB 1/2 KENANSVILLE CLOUDY 42 41 99 NW8 30.06R FOG KINSTON FOG 43 43 100 NW7 30.06S VSB 1 NEW BERN CLOUDY 47 44 90 N7 30.04S FOG RICHLANDS CLOUDY 43 39 87 NW3 30.04R ROCKY MOUNT CLOUDY 41 39 93 N12 30.05F FOG WASHINGTON CLOUDY 44 43 97 NW7 30.04S FOG WHITEVILLE CLOUDY 43 42 96 CALM 30.03S FOG $$ AMZ130-135-150-152-154-156-158-170-250-252-270-ANZ085-086-088-633-658-670-230200- MARINE OBSERVATIONS STATION/POSITION TIME TEMP WIND PRES WAVE SWELL AIR SEA DIR/SP/G HT/PER HT/PER (UTC) (F) (DEG/KT/KT) (MB) (FT/S) (FT/S) CHESAPEAKE LIGHT 0000 54 80/ 29/ 33 1015.7 64 E VA BEACH 0100 61 56 120/ 12/ 14 1014.1 12/ 8 10/ 8 DUCK 0100 52 46 60/ 12/ 12 1013.8 2 E DUCK 0100 47 N/A 8/ 9 2/11 10 NE DUCK 0100 51 N/A 9/ 8 2/11 OREGON INLET 0100 52 49 290/ 6/ 7 1015.1 13E OREGON INLT 0100 52 N/A 9/ 8 2/11 HATTERAS CG 0100 52 54 270/ 7/ 8 1015.2 DIAMOND BUOY 0100 60 1015.1 7/ 8 17 S OCRACOKE NOT AVBL CAPE LOOKOUT 0000 51 310/ 7/ 9 1016.1 BEAUFORT LAB 0100 49 51 340/ 7/ 9 1015.4 30 SE NEW RIVER 0100 53 60 10/ 10/ 14 1015.8 4/ 8 3/ 8 5 SE WRIGHTSVLE NOT AVBL 225 S CAPE HAT 0047 73 72 220/ 10/ 12 1016.9 4/ 6 3/ 6 41 SE CHARLESTON 0100 67 73 60/ 10/ 12 1014.2 4/ 8 3/ 8 $$

USA.gov is the U.S. government's official web portal to all federal, state and local government web resources and services.